Volver al catálogo

STARLINK-5212

ActivoComunicacionesVLEO
NORAD 54075·PAYLOAD·🇺🇸 United States

Lanzado Oct 20, 2022 desde Cape Canaveral Space Force Station

Loading…

Próximos Pases (próximas 24 horas)

TLE

ActualizadoSource: CelesTrak SupGP

Época: Sep 14, 2026, 21:01 UTC

1 54075C 22136AA  26257.87618056 -.00020404  00000+0 -65605-3 0  2571
2 54075  53.1577 195.1826 0001404  97.6198 309.5442 15.31715945    11

Sigue STARLINK-5212 en tiempo real con AllMySat

Download on the App Store